Regional Weather Roundup
Issued by NWS

Home | Current Version | Previous Version | Graphics & Text | Print | Product List | Glossary On
Versions: 1 2 3 4 5 6 7 8 9 10 11 12 13 14 15 16 17 18 19 20 21 22 23 24 25 26 27 28 29 30 31 32 33 34 35 36 37 38 39 40 41 42 43 44 45 46 47 48 49 50
000
ASUS43 KMPX 281401
RWRMN
WEATHER ROUNDUP FOR MINNESOTA
NATIONAL WEATHER SERVICE TWIN CITIES/CHANHASSEN MN
900 AM CDT TUE JUL 28 2015


NOTE: "FAIR" INDICATES FEW OR NO CLOUDS BELOW 12,000 FEET WITH NO
SIGNIFICANT WEATHER AND/OR OBSTRUCTIONS TO VISIBILITY. N/A MEANS
CURRENT SKY AND/OR WEATHER CONDITIONS ARE NOT AVAILABLE.

MNZ060>063-068>070-281500-
   Twin Cities Metro

CITY           SKY/WX    TMP DP  RH WIND       PRES   REMARKS
TWIN CITIES    LGT RAIN  72  70  93 E14       29.78F
ST PAUL        LGT RAIN  71  69  93 SE14G24   29.78S
CRYSTAL        LGT RAIN  72  67  84 SE9       29.74F
BLAINE         CLOUDY    72  70  94 SE13      29.77F
LAKEVILLE      LGT RAIN  68  66  94 SE14G21   29.75F
EDEN PRAIRIE   LGT RAIN  73  69  87 SE8       29.77F
SOUTH ST PAUL  LGT RAIN  71  69  96 SE9G16    29.78F
LAKE ELMO      DRIZZLE   70  70 100 SE14G22   29.81F
$$
MNZ001>005-007-008-013>017-022>024-027-028-281500-
   Northwest Minnesota

CITY           SKY/WX    TMP DP  RH WIND       PRES   REMARKS
BEMIDJI        RAIN      70  69  97 SE8       29.69S
HALLOCK        CLOUDY    75  64  69 S17       29.56S
ROSEAU         CLOUDY    73  68  83 S7        29.63R
WARROAD        CLOUDY    73  70  88 S10G17    29.63F
THIEF RVR FALL CLOUDY    72  68  88 S13       29.63R
CROOKSTON      CLOUDY    70  70 100 S16G23    29.62F
FOSSTON        CLOUDY    70  66  88 S12       29.69R
DETROIT LAKES  CLOUDY    70  68  94 SW7       29.72F
MOORHEAD       PTSUNNY   72  70  94 S10       29.68S
PARK RAPIDS    LGT RAIN  71  69  93 S7        29.70R FOG
MAHNOMEN       PTSUNNY   71  69  93 S13       29.68F
$$
MNZ006-009>011-018-025>026-281500-
   North Central Minnesota

CITY           SKY/WX    TMP DP  RH WIND       PRES   REMARKS
BAUDETTE       LGT RAIN  73  69  87 SE14G21   29.68S
FLAG ISLAND    CLOUDY    73  70  88 SE20      29.63F
INTL FALLS     CLOUDY    72  68  87 SE8       29.73F
WASKISH        DRIZZLE   73  70  88 SE7       29.69F
BIG FORK       LGT RAIN  72  68  88 CALM      29.71F
LONGVILLE      CLOUDY    72  70  94 S9G18     29.71R
GRAND RAPIDS   CLOUDY    72  66  83 SE14      29.69R
CRANE LAKE     CLOUDY    70  66  88 SE3       29.78F
ORR            DRIZZLE   70  64  83 SE5       29.73F
COOK           LGT RAIN  70  66  88 SE9       29.76F
WALKER         LGT RAIN  70  69  96 S3        29.69S
$$
MNZ012-019>021-037-281500-
   Northeast Minnesota

CITY           SKY/WX    TMP DP  RH WIND       PRES   REMARKS
DULUTH         CLOUDY    72  67  84 S13       29.82F
ELY            CLOUDY    72  64  78 S15G21    29.81F
HIBBING        RAIN      70  68  93 SE17G28   29.72F
EVELETH        LGT RAIN  70  68  94 SE13G20   29.78F
DULUTH HARBOR  DRIZZLE   75  70  83 SE3       29.81F
TWO HARBORS    LGT RAIN  72  66  83 E3        29.83F
SILVER BAY     LGT RAIN  70  64  83 E5        29.84F
GRAND MARAIS     N/A     59  56  89 NE7       29.89S
G MARAIS ARPRT   N/A     66  61  82 SE6       29.94F
$$
MNZ029>031-032-039>041-046>048-054>057-064-281500-
   West Central Minnesota

CITY           SKY/WX    TMP DP  RH WIND       PRES   REMARKS
FERGUS FALLS   CLOUDY    70  70 100 W7        29.72R
WHEATON        CLOUDY    70  66  88 S8        29.76R
MORRIS         CLOUDY    72  70  94 W13G20    29.77R
ALEXANDRIA     CLOUDY    69  68  96 SW17      29.78R
ELBOW LAKE     CLOUDY    68  67  98 SW6       29.75R
WADENA         CLOUDY    70  68  94 S12G18    29.72R
GLENWOOD       CLOUDY    70  68  94 SW15      29.79R
APPLETON       CLOUDY    73  68  83 W13       29.77R
BENSON         CLOUDY    72  66  83 W10G16    29.77R
ORTONVILLE     CLOUDY    70  66  88 W9G16     29.78R
MADISON        CLOUDY    72  68  88 W13       29.77R
WILLMAR        FAIR      70  70 100 W8        29.78R
$$
MNZ033>034-036-042>043-049>051-058-059-281500-
   Central Minnesota

CITY           SKY/WX    TMP DP  RH WIND       PRES   REMARKS
ST CLOUD       CLOUDY    72  70  93 S12       29.74R
SAUK CENTRE    CLOUDY    71  69  93 S7        29.77R
PAYNESVILLE    CLOUDY    68  67  97 S5        29.77R
AITKIN         CLOUDY    73  66  78 SE15G24   29.69R
PINE RIVER     CLOUDY    72  70  94 S13G18    29.75R
BRAINERD       CLOUDY    72  69  90 S20G33    29.74R
STAPLES        CLOUDY    70  68  94 S13G20    29.73R
LONG PRAIRIE   CLOUDY    70  68  94 S8        29.76R
LITTLE FALLS   CLOUDY    70  68  94 S10G18    29.76R
LITCHFIELD     CLOUDY    72  70  94 SE7       29.75R
BUFFALO        CLOUDY    72  68  88 SE14G21   29.74F
MAPLE LAKE     CLOUDY    72  70  94 SE13G22   29.74S
$$
MNZ037-044-045-052-053-281500-
   East Central Minnesota

CITY           SKY/WX    TMP DP  RH WIND       PRES   REMARKS
PRINCETON      CLOUDY    73  70  88 SE8G18    29.72F
MORA           LGT RAIN  70  68  94 SE13      29.69F
CAMBRIDGE      CLOUDY    72  63  73 SE8       29.71F
RUSH CITY      LGT RAIN  71  69  93 SE12G22   29.76F
MOOSE LAKE     LGT RAIN  70  68  94 SE12G25   29.69F
HINCKLEY       DRIZZLE   72  72 100 SE17G24   29.74F
CLOQUET        RAIN      72  68  88 SE7       29.78F
MCGREGOR       CLOUDY    72  70  94 SE17G25   29.68F
$$
MNZ071>073-080-081-089-090-097-098-281500-
   Southwest Minnesota

CITY           SKY/WX    TMP DP  RH WIND       PRES   REMARKS
MONTEVIDEO     CLOUDY    70  70 100 W7        29.79R
GRANITE FALLS  CLOUDY    69  65  89 SW12G17   29.80R
CANBY          CLOUDY    71  65  80 SW10G16   29.79R
MARSHALL       CLOUDY    72  63  73 SW15G23   29.78R
REDWOOD FALLS  CLOUDY    70  65  84 S10       29.74R
OLIVIA         CLOUDY    68  63  83 S8        29.73R
PIPESTONE      CLOUDY    70  66  88 SW14G20   29.82F
WINDOM         CLOUDY    70  66  88 SW10G17   29.80R
WORTHINGTON    CLOUDY    70  64  83 SW15      29.82F
JACKSON        CLOUDY    70  68  94 SW9       29.83R
TRACY          CLOUDY    70  66  88 SW17G23   29.78R
SLAYTON        CLOUDY    68  67  97 SW15      29.82S
$$
MNZ065>067-074>077-082>085-091>093-281500-
   South Central Minnesota

CITY           SKY/WX    TMP DP  RH WIND       PRES   REMARKS
MANKATO        CLOUDY    68  64  88 SE18G26   29.78R
NEW ULM        CLOUDY    68  66  94 CALM      29.77S
ST JAMES       CLOUDY    70  68  94 S6        29.77R
FAIRMONT       CLOUDY    70  63  78 SE7       29.76R
GLENCOE        CLOUDY    71  70  97 SE13      29.76S
FARIBAULT      CLOUDY    68  66  94 SE16      29.83F
OWATONNA       CLOUDY    68  64  88 E23G30    29.78F
WASECA         CLOUDY    64  63  94 E20G29    29.77F
ALBERT LEA     TSTM      68  66  94 SE15      29.86F
$$
MNZ078>079-086>088-094>096-281500-
   Southeast Minnesota

CITY           SKY/WX    TMP DP  RH WIND       PRES   REMARKS
ROCHESTER      HVY RAIN  68  67  96 W7        30.00S VSB 3/4
RED WING       HVY RAIN  73  72  94 SE13      29.87F
STANTON        LGT RAIN  69  66  90 SE14G22   29.80F
DODGE CENTER   LGT RAIN  66  64  94 SE9       29.93F
WINONA         HVY RAIN  73  70  88 W6        29.99R
AUSTIN         RAIN      68  66  94 SE8       29.96F
PRESTON        RAIN      70  69  94 S10G21    29.96R
$$
ABBREVIATIONS USED IN REMARKS
   TC - TEMPERATURES IN CELSIUS
  WCI - WIND CHILL INDEX
   HX - HEAT INDEX
  VSB - VISIBILITY
$$


USA.gov is the U.S. government's official web portal to all federal, state and local government web resources and services.